Regional Weather Roundup
Issued by NWS Little Rock, AR

Home | Current Version | Previous Version | Text Only | Print | Product List | Glossary Off
Versions: 1 2 3 4 5 6 7 8 9 10 11 12 13 14 15 16 17 18 19 20 21 22 23 24 25 26 27 28 29 30 31 32 33 34 35 36 37 38 39 40 41 42 43 44 45 46 47 48 49 50

000
ASUS44 KLZK 180705
RWRLZK

WEATHER ROUNDUP FOR ARKANSAS
NATIONAL WEATHER SERVICE LITTLE ROCK AR
100 AM CST THU DEC 18 2014

NOTE: "FAIR" INDICATES FEW OR NO CLOUDS BELOW 12,000 FEET WITH NO
SIGNIFICANT WEATHER AND/OR OBSTRUCTIONS TO VISIBILITY.

ARZ001-003-010-029-180800-
NORTHWEST ARKANSAS

CITY           SKY/WX    TMP DP  RH WIND       PRES   REMARKS
FAYETTEVILLE   CLOUDY    37  35  92 CALM      30.17F
FORT SMITH     CLOUDY    37  33  85 E10       30.20S
HARRISON       CLOUDY    33  32  96 SE9       30.19S WCI  25
BENTONVILLE    CLOUDY    37  34  87 SE5       30.17F
ROGERS         CLOUDY    36  34  92 E6        30.17F
SILOAM SPGS    CLOUDY    36  30  80 CALM      30.18F
HIGHFILL       CLOUDY    36  32  85 E3        30.16F
$$

ARZ004-005-016-180800-
NORTH CENTRAL ARKANSAS

CITY           SKY/WX    TMP DP  RH WIND       PRES   REMARKS
BATESVILLE     CLOUDY    36  32  87 E3        30.26F
FLIPPIN        CLOUDY    34  28  80 E3        30.22F
MTN HOME       LGT RAIN  33  33 100 E6        30.21F WCI  28
$$

ARZ040-041-180800-
WEST CENTRAL ARKANSAS

CITY           SKY/WX    TMP DP  RH WIND       PRES   REMARKS
MENA           CLOUDY    37  36  93 E3        30.18F
MOUNT IDA      LGT RAIN  37  35  92 E3        30.17F
$$

ARZ009-017-025-026-028-180800-
NORTHEAST ARKANSAS

CITY           SKY/WX    TMP DP  RH WIND       PRES   REMARKS
CORNING        CLOUDY    36  36 100 E5        30.28S
JONESBORO      LGT RAIN  36  35  96 E9        30.26F
NEWPORT        LGT RAIN  37  34  89 E6        30.29S VSB 1
WALNUT RIDGE   CLOUDY    36  32  87 CALM      30.28S
BLYTHEVILLE    LGT RAIN  37  35  92 NE7       30.30F
$$

ARZ022-023-033-042-044-180800-
CENTRAL ARKANSAS

CITY           SKY/WX    TMP DP  RH WIND       PRES   REMARKS
LITTLE ROCK    RAIN      37  34  89 NE9       30.25F
N LITTLE ROCK    N/A     36  36 100 NE8       30.25F
JACKSONVILLE   LGT RAIN  36  35  95 E6        30.25F
SEARCY         LGT RAIN  36  35  96 SE6       30.28F
HOT SPRINGS    LGT RAIN  37  35  92 SE5       30.24S
RUSSELLVILLE   MIX PCPN  37  35  92 CALM      30.23F
CLINTON        CLOUDY    36  34  93 CALM      30.26S FOG
$$

ARZ036-180800-
EAST ARKANSAS

CITY           SKY/WX    TMP DP  RH WIND       PRES   REMARKS
WEST MEMPHIS   CLOUDY    37  36  96 N6        30.28R
$$

ARZ050-053-066-070-073-180800-
SOUTHWEST ARKANSAS

CITY           SKY/WX    TMP DP  RH WIND       PRES   REMARKS
ARKADELPHIA    RAIN      38  38 100 NE6       30.26F FOG
CAMDEN         RAIN      37  36  93 MISG      30.25F
TEXARKANA      CLOUDY    37  37 100 NE8       30.20F FOG
EL DORADO      LGT RAIN  40  38  93 N6        30.24F FOG
DE QUEEN       LGT RAIN  38  36  92 E10       30.19F FOG
$$

ARZ056-057-069-180800-
SOUTHEAST ARKANSAS

CITY           SKY/WX    TMP DP  RH WIND       PRES   REMARKS
PINE BLUFF     FLURRIES  38  34  85 N6        30.28S
STUTTGART      CLOUDY    37  34  87 NE10      30.27F
MONTICELLO     CLOUDY    41  36  82 VRB5      30.27R

$$





USA.gov is the U.S. government's official web portal to all federal, state and local government web resources and services.